Regional Weather Roundup
Issued by NWS Upton, NY

Current Version | Previous Version | Text Only | Print | Product List | Glossary On
Versions: 1 2 3 4 5 6 7 8 9 10 11 12 13 14 15 16 17 18 19 20 21 22 23 24 25 26 27 28 29 30 31 32 33 34 35 36 37 38 39 40 41 42 43 44 45 46 47 48 49 50
000 ASUS41 KOKX 050304 RWROKX REGIONAL WEATHER ROUNDUP NATIONAL WEATHER SERVICE NEW YORK NY 1100 PM EDT FRI SEP 04 2015 NOTE: "FAIR" INDICATES FEW OR NO CLOUDS BELOW 12,000 FEET WITH NO SIGNIFICANT WEATHER AND/OR OBSTRUCTIONS TO VISIBILITY. NYZ071-072-176-178-NJZ106-104-050400- NEW YORK CITY METRO AREA CITY SKY/WX TMP DP RH WIND PRES REMARKS CENTRAL PARK CLEAR 75 60 59 MISG 30.23R LAGUARDIA APRT CLEAR 74 61 63 E12 30.19R KENNEDY INTL PTCLDY 72 64 76 E12 30.21R NEWARK/LIBERTY PTCLDY 73 64 73 E13 30.20R BRNX BOT. GARD N/A 72 61 68 NE2 30.21R TETERBORO CLEAR 75 59 57 SE5 30.19R $$ NYZ177-179-078>081-050400- LONG ISLAND NEW YORK CITY SKY/WX TMP DP RH WIND PRES REMARKS FARMINGDALE CLEAR 70 63 78 E8 30.21R ISLIP CLEAR 68 60 75 E12 30.19S SHIRLEY CLEAR 68 61 78 E5 30.22R WESTHAMPTON CLEAR 68 61 78 E9 30.23R MONTAUK POINT N/A 68 61 78 NE9G18 30.24R $$ NYZ052-065-067-050400- HUDSON VALLEY CITY SKY/WX TMP DP RH WIND PRES REMARKS WHITE PLAINS PTCLDY 70 63 78 E9 30.21R NEWBURGH PTCLDY 73 66 78 SE9 30.22R MONTGOMERY CLOUDY 70 67 90 CALM 30.20S POUGHKEEPSIE PTCLDY 73 62 68 CALM 30.20R ALBANY PTCLDY 71 57 61 CALM 30.21R $$ NJZ001-105-106-008-010-013-015-019>022-104-050400- NEW JERSEY CITY SKY/WX TMP DP RH WIND PRES REMARKS NEWARK/LIBERTY PTCLDY 73 64 73 E13 30.20R TETERBORO CLEAR 75 59 57 SE5 30.19R CALDWELL CLEAR 70 63 78 CALM 30.20R MORRISTOWN CLEAR 70 61 73 CALM 30.20R SOMERVILLE CLEAR 71 64 78 CALM 30.18R SUSSEX CLEAR 65 64 97 CALM 30.21R FOG ANDOVER N/A 66 65 96 CALM 30.22R TRENTON MOCLDY 70 64 81 E5 30.19R MILLVILLE CLOUDY 74 67 78 NE9 30.16R ATLANTIC CITY CLOUDY 75 67 76 E10 30.16R WRIGHTSTOWN CLEAR 70 67 91 NE6 30.16R TOMS RIVER MOCLDY 72 64 78 E9 30.19R BELMAR CLOUDY 72 63 73 E12 30.20R $$ PAZ047>061-062-071-050400- EASTERN PENNSYLVANIA CITY SKY/WX TMP DP RH WIND PRES REMARKS PHILADELPHIA CLOUDY 76 66 71 E13 30.18R ALLENTOWN PTCLDY 74 65 73 E8 30.20R SCRANTON PTCLDY 73 66 78 VRB5 30.20R $$ CTZ002-004>006-009-010-012-RIZ004-006-007-MAZ004-011-015-050400- SOUTHERN NEW ENGLAND IN CT CITY SKY/WX TMP DP RH WIND PRES REMARKS BRADLEY INTL PTCLDY 64 58 80 E3 30.24R HARTFORD CLOUDY 69 55 60 E5 30.24R DANBURY CLEAR 68 62 81 SE3 30.24R WTRBRY/OXFORD CLEAR 66 55 68 E3 30.25S BRIDGEPORT CLEAR 72 62 71 E17 30.22R MERIDEN CLEAR 69 57 65 NE7 30.23R NEW HAVEN CLEAR 68 58 70 NE6 30.23R CHESTER NOT AVBL GROTON CLEAR 65 60 84 NE7 30.23R WILLIMANTIC CLEAR 64 56 75 CALM 30.25S IN RI CITY SKY/WX TMP DP RH WIND PRES REMARKS PROVIDENCE PTCLDY 62 59 90 NE6 30.26R BLOCK ISLAND CLOUDY 66 63 88 NE13G18 30.23S WESTERLY PTCLDY 64 58 80 NE5 30.24R IN MA CITY SKY/WX TMP DP RH WIND PRES REMARKS BOSTON CLEAR 62 57 83 NE6 30.27R WORCESTER CLEAR 60 50 69 NE3 30.28R WESTFIELD CLEAR 67 57 70 N3 30.25R PROVINCETOWN N/A 63 52 67 E8 30.25F NANTUCKET N/A N/A N/A N/A MISG N/A $$ ANZ330-335-338-340-345-350-353-355-050400- COASTAL MARINE OBSERVATIONS STATION/POSITION TIME SKY/WX TEMP WIND PRES VSBY WAVE AIR SEA DIR/SP/G HT/PER (UTC) (F) (DEG/KT/KT) (MB) (MI) (FT/S) NY HARB ENTRANCE 0150 72 76 90/ 21/ 23 1021.2 6/ 6 4S FIRE IS NOT AVBL 20S FIRE ISLAND 0150 72 74 70/ 21/ 25 1021.1 6/ 7 GREAT SOUTH BAY 0215 72 79 90/ 12/ 25 N/A 23SW MTP 0250 69 72 70/ 19/ 23 1022.0 6/ 6 HUDSON CANYON NOT AVBL KINGS POINT 0200 72 74 20/ 1/ 2 1021.6 EXECUTION ROCKS 0200 74 140/ 8/ 10 N/A CENTRAL LI SOUND NOT AVBL EASTERN LI SOUND 0200 68 70 60/ 16/ 19 N/A ROBBINS REEF 0200 73 100/ 16/ 19 1021.0 $$ >>>>>>>>>>>>>>>>>>>>>>>>>>>> KEY <<<<<<<<<<<<<<<<<<<<<<<<<<< > < > SKY/WX - SKY CONDITION/PRESENT WEATHER < > TMP - TEMPERATURE IN FAHRENHEIT < > DP - DEWPOINT IN FAHRENHEIT < > RH - RELATIVE HUMIDITY IN PERCENT < > WIND - DIRECTION AND SPEED IN MPH < > PRES - MEAN SEA LEVEL PRESSURE IN INCHES OF HG < > WCI - WIND CHILL INDEX < > VSB - VISIBILITY IN MILES < > HX - HEAT INDEX < > TC - TEMPERATURE IN CELSIUS < > VRB - VARIABLE WIND DIRECTION < > < >>>>>>>>>>>>>>>>>>>>>>>>>>>> KEY <<<<<<<<<<<<<<<<<<<<<<<<<<<

USA.gov is the U.S. government's official web portal to all federal, state and local government web resources and services.